This demonstration page uses our WeatherBlox Daily Observations layout. Learn more.

Left ArrowRight Arrow

39.08367, -84.50855

Hourly Observations for August 1, 2020

Temp ( °F °C ) Dew Point ( °F °C ) Humidity (%) Winds ( mph kmh ) Pressure ( in mb ) Visibility ( mi km ) Precip ( " mm )
12:53 am 00:53 Cloudy 74 23.3 69 20.6 85 85 NE 5 7 29.85 1011 10 16 N/A
1:53 am 01:53 Mostly Cloudy 73 22.8 67 19.4 81 81 NE 6 9 29.84 1011 10 16 N/A
2:53 am 02:53 Mostly Cloudy 72 22.2 67 19.4 84 84 N N/A 29.83 1010 10 16 N/A
3:36 am 03:36 Cloudy 73 22.8 67 19.4 81 81 ENE 5 7 29.82 1010 10 16 N/A
3:53 am 03:53 Cloudy with Light Rain 72 22.2 66 18.9 82 82 ENE 5 7 29.82 1010 8 13 0.01 0.25
4:53 am 04:53 Cloudy 70 21.1 68 20 93 93 NE 3 6 29.82 1010 10 16 0.00 0.00
5:32 am 05:32 Cloudy 71 21.7 68 20 90 90 NNE 3 6 29.84 1010 10 16 N/A
5:53 am 05:53 Cloudy 70 21.1 68 20 93 93 NE 3 6 29.82 1010 10 16 N/A
6:31 am 06:31 Cloudy 70 21.1 68 20 93 93 NE 3 6 29.83 1010 10 16 N/A
6:41 am 06:41 Cloudy 71 21.7 68 20 90 90 N 3 6 29.83 1010 10 16 N/A
6:48 am 06:48 Cloudy 72 22 68 20 88 88 N N/A 29.82 1010 8 13 N/A
6:53 am 06:53 Cloudy 71 21.7 68 20 90 90 NE 3 6 29.83 1010 8 13 N/A
7:29 am 07:29 Cloudy 71 21.7 68 20 90 90 NNE 3 6 29.84 1010 10 16 N/A
7:53 am 07:53 Cloudy 71 21.7 69 20.6 94 94 NNE 5 7 29.83 1010 10 16 N/A
8:53 am 08:53 Cloudy 74 23.3 71 21.7 91 91 N N/A 29.84 1010 10 16 N/A
9:53 am 09:53 Mostly Cloudy 76 24.4 71 21.7 85 85 S 10 17 29.84 1011 10 16 0.00 0.00
10:53 am 10:53 Mostly Cloudy 78 25.6 71 21.7 79 79 SSE 8 13 29.83 1010 10 16 N/A
11:00 am 11:00 Mostly Cloudy 79 26.1 71 21.7 77 77 SSW 6 9 29.83 1010 10 16 N/A
11:53 am 11:53 Cloudy 80 26.7 71 21.7 74 74 S 6 9 29.83 1010 10 16 N/A
12:53 pm 12:53 Cloudy 81 27.2 74 23.3 79 79 S 10 17 29.82 1010 10 16 0.00 0.00
1:53 pm 13:53 Partly Cloudy 83 28.3 73 22.8 72 72 SSE 9 15 29.78 1009 10 16 N/A
2:53 pm 14:53 Partly Cloudy 82 27.8 75 23.9 79 79 S 8 13 29.77 1008 10 16 0.02 0.51
3:53 pm 15:53 Mostly Sunny 85 29.4 72 22.2 65 65 S 13 20 29.74 1007 10 16 N/A
4:53 pm 16:53 Cloudy with Haze 79 26.1 73 22.8 82 82 S 5 7 29.74 1007 5 8 0.15 3.81
5:17 pm 17:17 Cloudy with Heavy Rain 76 24.4 71 21.7 85 85 SW 7 11 29.75 1007 2 3 0.06 1.52
5:36 pm 17:36 Cloudy with Light Rain 76 24.4 71 21.7 85 85 SW 17 28 29.76 1008 6 10 0.20 5.08
5:53 pm 17:53 Cloudy with Light Rain 74 23.3 70 21.1 88 88 S 7 11 29.75 1008 4 6 0.30 7.62
6:53 pm 18:53 Mostly Sunny 78 25.6 71 21.7 79 79 N N/A 29.75 1007 10 16 0.00 0.00
7:10 pm 19:10 Partly Cloudy with Nearby Thunderstorms 77 25 72 22.2 85 85 N N/A 29.75 1007 10 16 N/A
7:25 pm 19:25 Mostly Cloudy with Light Rain 76 24.4 74 23.3 94 94 VRB 3 6 29.75 1007 10 16 0.00 0.00
7:42 pm 19:42 Cloudy with Light Rain 76 24.4 71 21.7 85 85 WSW 9 15 29.76 1008 6 10 0.01 0.25
7:53 pm 19:53 Cloudy with Light Rain 75 23.9 70 21.1 84 84 SW 8 13 29.76 1008 10 16 0.01 0.25
8:53 pm 20:53 Cloudy with Rain 73 22.8 71 21.7 94 94 S 7 11 29.78 1008 5 8 0.06 1.52
9:53 pm 21:53 Cloudy with Light Rain 73 22.8 71 21.7 94 94 S 8 13 29.77 1008 10 16 0.09 2.29
10:32 pm 22:32 Cloudy 72 22.2 71 21.7 97 97 S 5 7 29.76 1008 10 16 0.01 0.25
10:42 pm 22:42 Cloudy 72 22.2 71 21.7 97 97 N N/A 29.77 1008 10 16 0.01 0.25
10:53 pm 22:53 Cloudy 73 22.8 71 21.7 94 94 S 5 7 29.77 1008 10 16 0.01 0.25
11:53 pm 23:53 Partly Cloudy 73 22.8 71 21.7 94 94 S 7 11 29.75 1007 10 16 0.00 0.00

Powered by AerisWeather